Location: Gro�sch�nbrunn
(49.5760°N, 11.8868°E)
Time: 17:29:00
(UTC+00:00)

Okean-O - Pass Details

Date: 18 September 2020
Orbit: 638 x 641 km, 98.2° (Epoch: 31 October)

Event Time Altitude Azimuth Distance (km) Brightness Sun altitude
Rises 18:06:31 0° 184° (S) 2,934 5.9 -8.5°
Reaches altitude 10° 18:08:49 10° 193° (SSW) 2,030 5.2 -8.9°
Maximum altitude 18:12:58 39° 262° (W) 967 4.2 -9.6°
Drops below altitude 10° 18:17:09 10° 332° (NNW) 2,046 5.9 -10.2°
Sets 18:19:30 0° 340° (NNW) 2,961 6.6 -10.6°
